Current weather by "City, St" or "zip code"  
 

Current Conditions: PEORIA

Clear


84.0 F

Last Updated on Jun 17 2024, 09:54 PM CDT
Humidity: 63%
Wind Speed: mph
Barometer 29.92 in
Dewpoint: 70.0 F
Visibility: 10.00 mi
Precip: --
Heat Index: 88.3 F
Wind Chill: NA
Current conditions at:

PEORIA (KPIA)

Lat: 40.67 Lon: 89.68

active severe weather and emergency alerts image image weather storm and storm spotter reports image weather observation monitoring service image
Active
Alerts
Storm Reports Obs
Monitoring

Sign-up For Email & Text Message Weather Alert Notification Services



Advertise Here

Observation History for PEORIA


Time Wind
(mph)
Vis
(mi)
Weather Precip (in) Temperature (F) Relative
Humidity
Wind
Chill
(F)
Heat
Index
(F)
Pressure
Air Dwpt altimeter
(in)
sea level
(mb)
Rmks
09:54 PM CDT 10.00 Clear -- 84.0 70.0 63% NA 88.3 29.92 1013.2
08:54 PM CDT 10.00 Clear -- 86.0 68.0 55% NA 89.4 29.88 1011.9
07:54 PM CDT S 13.9 10.00 Clear -- 89.1 69.1 52% NA 93.7 29.85 1010.8
06:54 PM CDT 10.00 Clear -- 91.9 66.9 44% NA 95.4 29.85 1010.8
05:54 PM CDT S 12.8 10.00 Mostly Clear -- 93.0 69.1 46% NA 98.4 29.86 1011.2
04:54 PM CDT S 12.8 10.00 Mostly Clear -- 93.0 68.0 44% NA 97.5 29.87 1011.5
03:54 PM CDT 10.00 Clear -- 95.0 66.9 40% NA 99.0 29.88 1011.9
02:54 PM CDT S 12.8 10.00 Clear -- 95.0 66.9 40% NA 99.0 29.90 1012.5
01:54 PM CDT 10.00 Clear -- 93.9 68.0 43% NA 98.6 29.92 1013.2
10:54 AM CDT 10.00 Clear -- 91.0 70.0 50% NA 96.8 29.95 1014.2
07:54 AM CDT 9.2 10.00 Clear -- 81.0 73.0 77% NA 85.8 29.97 1014.9
06:54 AM CDT 5.8 10.00 NULL -- 78.1 73.0 85% NA 79.5 29.94 1013.9
05:54 AM CDT S 8.1 10.00 Clear -- 75.9 72.0 88% NA 77.4 29.91 1012.9
04:54 AM CDT S 8.1 10.00 Clear -- 77.0 71.1 82% NA 78.3 29.90 1012.5
03:54 AM CDT 6.9 10.00 Clear -- 77.0 71.1 82% NA 78.3 29.89 1012.2
02:54 AM CDT S 6.9 10.00 Clear -- 78.1 70.0 76% NA 79.2 29.90 1012.5
01:54 AM CDT 6.9 10.00 Clear -- 78.1 70.0 76% NA 79.2 29.91 1012.9
12:54 AM CDT 8.1 10.00 Clear -- 80.1 70.0 71% NA 83.3 29.91 1012.9
11:54 PM CDT 9.2 10.00 Clear -- 82.0 70.0 67% NA 85.8 29.90 1012.5
10:54 PM CDT 6.9 10.00 Clear -- 81.0 70.0 69% NA 84.4 29.90 1012.5
09:54 PM CDT S 8.1 10.00 Clear -- 82.9 70.0 65% NA 87.1 29.88 1011.9
08:54 PM CDT 5.8 10.00 Clear -- 84.0 69.1 61% NA 87.8 29.86 1011.2
07:54 PM CDT 8.1 10.00 Clear -- 88.0 69.1 54% NA 92.5 29.85 1010.8
06:54 PM CDT 9.2 10.00 Clear -- 89.1 70.0 53% NA 94.3 29.84 1010.5

Regional Weather Observation


GALESBURG (KGBG)

Clear
80.8 F

LACON (KC75)

Clear
81.1 F

MACOMB MUNI (KMQB)

Clear
80.6 F

LINCOLN (KAAA)

Clear
79.7 F

PERU (KVYS)

Clear
82.6 F

MOLINE/QUAD CITY (KMLI)

Clear
84.0 F

Advertise Here


Advertise Here